Location: Baia de Cri?
(46.1667°N, 22.7167°E)
Time: 23:12:35
(UTC+00:00)

Okean 2 - Pass Details

Date: 15 January 2026
Orbit: 515 x 525 km, 82.5° (Epoch: 13 February)

Event Time Altitude Azimuth Distance (km) Brightness Sun altitude
Exits shadow 04:29:54 35° 281° (W) 844 3.7 -16.5°
Maximum altitude 04:30:15 36° 268° (W) 830 3.7 -16.4°
Drops below altitude 10° 04:33:46 10° 201° (SSW) 1,737 5.8 -15.9°
Sets 04:35:59 0° 192° (SSW) 2,619 6.8 -15.5°
